Time,TemperatureF,DewpointF,PressureIn,WindDirection,WindDirectionDegrees,WindSpeedMPH,WindSpeedGustMPH,Humidity,HourlyPrecipIn,Conditions,Clouds,dailyrainin,SoftwareType,DateUTC
2013-06-21 00:01:00,76.0,70.8,30.07,North,0,0.0,0.0,84,0.00,,,0.28,WUHU216HW,2013-06-21 04:01:00,
2013-06-21 00:06:00,76.0,70.8,30.06,North,0,0.0,0.0,84,0.00,,,0.00,WUHU216HW,2013-06-21 04:06:00,
2013-06-21 00:11:00,75.8,70.7,30.06,North,0,0.0,0.0,84,0.00,,,0.00,WUHU216HW,2013-06-21 04:11:00,
2013-06-21 00:16:00,75.8,70.7,30.06,North,0,0.0,0.0,84,0.00,,,0.00,WUHU216HW,2013-06-21 04:16:00,
2013-06-21 00:21:00,75.6,70.8,30.06,North,0,0.0,0.0,85,0.00,,,0.00,WUHU216HW,2013-06-21 04:21:00,
2013-06-21 00:26:00,75.6,70.8,30.06,North,0,0.0,0.0,85,0.00,,,0.00,WUHU216HW,2013-06-21 04:26:00,
2013-06-21 00:31:00,75.6,70.8,30.07,North,0,0.0,0.0,85,0.00,,,0.00,WUHU216HW,2013-06-21 04:31:00,
2013-06-21 00:36:00,75.8,71.0,30.06,North,0,0.0,0.0,85,0.00,,,0.00,WUHU216HW,2013-06-21 04:36:00,
2013-06-21 00:41:00,75.8,71.0,30.07,North,0,0.0,0.0,85,0.00,,,0.00,WUHU216HW,2013-06-21 04:41:00,
2013-06-21 00:46:00,75.8,71.0,30.06,North,0,0.0,0.0,85,0.00,,,0.00,WUHU216HW,2013-06-21 04:46:00,
2013-06-21 00:51:00,75.8,71.0,30.06,North,0,0.0,0.0,85,0.00,,,0.00,WUHU216HW,2013-06-21 04:51:00,
2013-06-21 00:56:00,75.8,71.0,30.06,North,0,0.0,0.0,85,0.00,,,0.00,WUHU216HW,2013-06-21 04:56:00,
2013-06-21 01:01:00,75.8,71.0,30.06,North,0,0.0,0.0,85,0.00,,,0.00,WUHU216HW,2013-06-21 05:01:00,
2013-06-21 01:06:00,75.8,71.0,30.06,North,0,0.0,0.0,85,0.00,,,0.00,WUHU216HW,2013-06-21 05:06:00,
2013-06-21 01:11:00,75.8,71.0,30.06,North,0,0.0,0.0,85,0.00,,,0.00,WUHU216HW,2013-06-21 05:11:00,
2013-06-21 01:16:00,75.8,71.0,30.05,North,0,0.0,0.0,85,0.00,,,0.00,WUHU216HW,2013-06-21 05:16:00,
2013-06-21 01:21:00,75.8,71.0,30.06,North,0,0.0,0.0,85,0.00,,,0.00,WUHU216HW,2013-06-21 05:21:00,
2013-06-21 01:26:00,75.8,71.0,30.05,North,0,0.0,0.0,85,0.00,,,0.00,WUHU216HW,2013-06-21 05:26:00,
2013-06-21 01:31:00,75.8,71.0,30.05,North,0,0.0,0.0,85,0.00,,,0.00,WUHU216HW,2013-06-21 05:31:00,
2013-06-21 01:36:00,75.8,71.0,30.05,North,0,0.0,0.0,85,0.00,,,0.00,WUHU216HW,2013-06-21 05:36:00,
2013-06-21 01:41:00,75.8,71.0,30.05,North,0,0.0,0.0,85,0.00,,,0.00,WUHU216HW,2013-06-21 05:41:00,
2013-06-21 01:46:00,75.8,71.0,30.05,North,0,0.0,0.0,85,0.00,,,0.00,WUHU216HW,2013-06-21 05:46:00,
2013-06-21 01:51:00,75.8,71.0,30.05,North,0,0.0,0.0,85,0.00,,,0.00,WUHU216HW,2013-06-21 05:51:00,
2013-06-21 01:56:00,75.8,71.0,30.05,North,0,0.0,0.0,85,0.00,,,0.00,WUHU216HW,2013-06-21 05:56:00,
2013-06-21 02:01:00,75.8,71.0,30.05,North,0,0.0,0.0,85,0.00,,,0.00,WUHU216HW,2013-06-21 06:01:00,
2013-06-21 02:06:00,75.8,71.0,30.05,North,0,0.0,0.0,85,0.00,,,0.00,WUHU216HW,2013-06-21 06:06:00,
2013-06-21 02:11:00,75.8,71.0,30.05,North,0,0.0,0.0,85,0.00,,,0.00,WUHU216HW,2013-06-21 06:11:00,
2013-06-21 02:16:00,75.8,71.0,30.05,North,0,0.0,0.0,85,0.00,,,0.00,WUHU216HW,2013-06-21 06:16:00,
2013-06-21 02:21:00,75.8,71.0,30.04,North,0,0.0,0.0,85,0.00,,,0.00,WUHU216HW,2013-06-21 06:21:00,
2013-06-21 02:26:00,75.8,71.0,30.04,North,0,0.0,0.0,85,0.00,,,0.00,WUHU216HW,2013-06-21 06:26:00,
2013-06-21 02:31:00,75.6,70.8,30.04,North,0,0.0,0.0,85,0.00,,,0.00,WUHU216HW,2013-06-21 06:31:00,
2013-06-21 02:36:00,75.6,71.2,30.04,North,0,0.0,0.0,86,0.00,,,0.00,WUHU216HW,2013-06-21 06:36:00,
2013-06-21 02:41:00,75.6,71.2,30.04,North,0,0.0,0.0,86,0.00,,,0.00,WUHU216HW,2013-06-21 06:41:00,
2013-06-21 02:46:00,75.6,71.2,30.03,North,0,0.0,0.0,86,0.00,,,0.00,WUHU216HW,2013-06-21 06:46:00,
2013-06-21 02:51:00,75.6,71.2,30.03,North,0,0.0,0.0,86,0.00,,,0.00,WUHU216HW,2013-06-21 06:51:00,
2013-06-21 02:56:00,75.6,71.2,30.03,North,0,0.0,0.0,86,0.00,,,0.00,WUHU216HW,2013-06-21 06:56:00,
2013-06-21 03:01:00,75.6,71.2,30.03,North,0,0.0,0.0,86,0.00,,,0.00,WUHU216HW,2013-06-21 07:01:00,
2013-06-21 03:06:00,75.6,71.2,30.03,North,0,0.0,0.0,86,0.00,,,0.00,WUHU216HW,2013-06-21 07:06:00,
2013-06-21 03:11:00,75.6,71.2,30.03,North,0,0.0,0.0,86,0.00,,,0.00,WUHU216HW,2013-06-21 07:11:00,
2013-06-21 03:16:00,75.6,71.2,30.03,North,0,0.0,0.0,86,0.00,,,0.00,WUHU216HW,2013-06-21 07:16:00,
2013-06-21 03:21:00,75.6,71.2,30.03,North,0,0.0,0.0,86,0.00,,,0.00,WUHU216HW,2013-06-21 07:21:00,
2013-06-21 03:26:00,75.6,71.2,30.03,North,0,0.0,0.0,86,0.00,,,0.00,WUHU216HW,2013-06-21 07:26:00,
2013-06-21 03:31:00,75.6,71.2,30.02,North,0,0.0,0.0,86,0.00,,,0.00,WUHU216HW,2013-06-21 07:31:00,
2013-06-21 03:36:00,75.6,71.2,30.02,North,0,0.0,0.0,86,0.00,,,0.00,WUHU216HW,2013-06-21 07:36:00,
2013-06-21 03:41:00,75.6,71.2,30.02,North,0,0.0,0.0,86,0.00,,,0.00,WUHU216HW,2013-06-21 07:41:00,
2013-06-21 03:46:00,75.6,71.2,30.02,North,0,0.0,0.0,86,0.00,,,0.00,WUHU216HW,2013-06-21 07:46:00,
2013-06-21 03:51:00,75.6,71.2,30.02,North,0,0.0,0.0,86,0.00,,,0.00,WUHU216HW,2013-06-21 07:51:00,
2013-06-21 03:56:00,75.6,71.5,30.02,North,0,0.0,0.0,87,0.00,,,0.00,WUHU216HW,2013-06-21 07:56:00,
2013-06-21 04:01:00,75.6,71.5,30.02,North,0,0.0,0.0,87,0.00,,,0.00,WUHU216HW,2013-06-21 08:01:00,
2013-06-21 04:07:00,75.6,71.5,30.02,North,0,0.0,0.0,87,0.00,,,0.00,WUHU216HW,2013-06-21 08:07:00,
2013-06-21 04:12:00,75.4,71.4,30.03,North,0,0.0,0.0,87,0.00,,,0.00,WUHU216HW,2013-06-21 08:12:00,
2013-06-21 04:17:00,75.4,71.4,30.03,North,0,0.0,0.0,87,0.00,,,0.00,WUHU216HW,2013-06-21 08:17:00,
2013-06-21 04:22:00,75.6,71.5,30.02,North,0,0.0,0.0,87,0.00,,,0.00,WUHU216HW,2013-06-21 08:22:00,
2013-06-21 04:27:00,75.6,71.5,30.02,North,0,0.0,0.0,87,0.00,,,0.00,WUHU216HW,2013-06-21 08:27:00,
2013-06-21 04:32:00,75.6,71.5,30.02,North,0,0.0,0.0,87,0.00,,,0.00,WUHU216HW,2013-06-21 08:32:00,
2013-06-21 04:37:00,75.4,71.0,30.02,North,0,0.0,0.0,86,0.00,,,0.00,WUHU216HW,2013-06-21 08:37:00,
2013-06-21 04:42:00,75.4,71.0,30.02,North,0,0.0,0.0,86,0.00,,,0.00,WUHU216HW,2013-06-21 08:42:00,
2013-06-21 04:47:00,75.4,71.0,30.02,North,0,0.0,0.0,86,0.00,,,0.00,WUHU216HW,2013-06-21 08:47:00,
2013-06-21 04:52:00,75.6,71.2,30.02,North,0,0.0,0.0,86,0.00,,,0.00,WUHU216HW,2013-06-21 08:52:00,
2013-06-21 04:57:00,75.6,71.2,30.01,North,0,0.0,0.0,86,0.00,,,0.00,WUHU216HW,2013-06-21 08:57:00,
2013-06-21 05:02:00,75.6,71.2,30.02,North,0,0.0,0.0,86,0.00,,,0.00,WUHU216HW,2013-06-21 09:02:00,
2013-06-21 05:07:00,75.6,71.2,30.01,North,0,0.0,0.0,86,0.00,,,0.00,WUHU216HW,2013-06-21 09:07:00,
2013-06-21 05:12:00,75.6,71.2,30.01,North,0,0.0,0.0,86,0.00,,,0.00,WUHU216HW,2013-06-21 09:12:00,
2013-06-21 05:17:00,75.4,71.0,30.01,North,0,0.0,0.0,86,0.00,,,0.00,WUHU216HW,2013-06-21 09:17:00,
2013-06-21 05:22:00,75.4,71.4,30.02,North,0,0.0,0.0,87,0.00,,,0.00,WUHU216HW,2013-06-21 09:22:00,
2013-06-21 05:27:00,75.4,71.4,30.02,North,0,0.0,0.0,87,0.00,,,0.00,WUHU216HW,2013-06-21 09:27:00,
2013-06-21 05:32:00,75.2,71.2,30.02,North,0,0.0,0.0,87,0.00,,,0.00,WUHU216HW,2013-06-21 09:32:00,
2013-06-21 05:37:00,75.2,71.2,30.02,North,0,0.0,0.0,87,0.00,,,0.00,WUHU216HW,2013-06-21 09:37:00,
2013-06-21 05:42:00,75.2,71.2,30.02,North,0,0.0,0.0,87,0.00,,,0.00,WUHU216HW,2013-06-21 09:42:00,
2013-06-21 05:47:00,75.2,71.2,30.02,North,0,0.0,0.0,87,0.00,,,0.00,WUHU216HW,2013-06-21 09:47:00,
2013-06-21 05:52:00,75.2,71.2,30.02,North,0,0.0,0.0,87,0.00,,,0.00,WUHU216HW,2013-06-21 09:52:00,
2013-06-21 05:57:00,75.2,71.2,30.02,North,0,0.0,0.0,87,0.00,,,0.00,WUHU216HW,2013-06-21 09:57:00,
2013-06-21 06:02:00,75.2,71.2,30.02,North,0,0.0,0.0,87,0.00,,,0.00,WUHU216HW,2013-06-21 10:02:00,
2013-06-21 06:07:00,75.2,71.2,30.02,North,0,0.0,0.0,87,0.00,,,0.00,WUHU216HW,2013-06-21 10:07:00,
2013-06-21 06:12:00,75.2,71.2,30.03,North,0,0.0,0.0,87,0.00,,,0.00,WUHU216HW,2013-06-21 10:12:00,
2013-06-21 06:17:00,75.2,71.2,30.03,North,0,0.0,0.0,87,0.00,,,0.00,WUHU216HW,2013-06-21 10:17:00,
2013-06-21 06:22:00,75.2,71.2,30.03,North,0,0.0,0.0,87,0.00,,,0.00,WUHU216HW,2013-06-21 10:22:00,
2013-06-21 06:27:00,75.1,71.0,30.03,North,0,0.0,0.0,87,0.00,,,0.00,WUHU216HW,2013-06-21 10:27:00,
2013-06-21 06:32:00,75.1,71.0,30.03,North,0,0.0,0.0,87,0.00,,,0.00,WUHU216HW,2013-06-21 10:32:00,
2013-06-21 06:37:00,74.9,70.8,30.03,North,0,0.0,0.0,87,0.00,,,0.00,WUHU216HW,2013-06-21 10:37:00,
2013-06-21 06:42:00,74.9,70.8,30.03,North,0,0.0,0.0,87,0.00,,,0.00,WUHU216HW,2013-06-21 10:42:00,
2013-06-21 06:47:00,74.9,70.8,30.04,North,0,0.0,0.0,87,0.00,,,0.00,WUHU216HW,2013-06-21 10:47:00,
2013-06-21 06:52:00,74.9,70.8,30.04,North,0,0.0,0.0,87,0.00,,,0.00,WUHU216HW,2013-06-21 10:52:00,
2013-06-21 06:57:00,74.7,70.7,30.04,North,0,0.0,0.0,87,0.00,,,0.00,WUHU216HW,2013-06-21 10:57:00,
2013-06-21 07:02:00,74.9,70.8,30.05,North,0,0.0,0.0,87,0.00,,,0.00,WUHU216HW,2013-06-21 11:02:00,
2013-06-21 07:07:00,74.7,70.7,30.05,North,0,0.0,0.0,87,0.00,,,0.00,WUHU216HW,2013-06-21 11:07:00,
2013-06-21 07:12:00,74.9,70.8,30.05,North,0,0.0,0.0,87,0.00,,,0.00,WUHU216HW,2013-06-21 11:12:00,
2013-06-21 07:17:00,74.9,71.1,30.05,North,0,0.0,0.0,88,0.00,,,0.00,WUHU216HW,2013-06-21 11:17:00,
2013-06-21 07:22:00,75.1,71.3,30.05,North,0,0.0,0.0,88,0.00,,,0.00,WUHU216HW,2013-06-21 11:22:00,
2013-06-21 07:27:00,75.1,71.3,30.05,North,0,0.0,0.0,88,0.00,,,0.00,WUHU216HW,2013-06-21 11:27:00,
2013-06-21 07:32:00,75.1,71.3,30.05,North,0,0.0,0.0,88,0.00,,,0.00,WUHU216HW,2013-06-21 11:32:00,
2013-06-21 07:37:00,75.2,71.5,30.05,North,0,0.0,0.0,88,0.00,,,0.00,WUHU216HW,2013-06-21 11:37:00,
2013-06-21 07:42:00,75.2,71.5,30.05,North,0,0.0,0.0,88,0.00,,,0.00,WUHU216HW,2013-06-21 11:42:00,
2013-06-21 07:47:00,75.2,71.5,30.05,North,0,0.0,0.0,88,0.00,,,0.00,WUHU216HW,2013-06-21 11:47:00,
2013-06-21 07:52:00,75.4,72.0,30.05,North,0,0.0,0.0,89,0.00,,,0.00,WUHU216HW,2013-06-21 11:52:00,
2013-06-21 07:57:00,75.4,72.0,30.06,North,0,0.0,0.0,89,0.00,,,0.00,WUHU216HW,2013-06-21 11:57:00,
2013-06-21 08:02:00,75.6,72.2,30.06,North,0,0.0,0.0,89,0.00,,,0.00,WUHU216HW,2013-06-21 12:02:00,
2013-06-21 08:07:00,75.6,72.2,30.06,North,0,0.0,0.0,89,0.00,,,0.00,WUHU216HW,2013-06-21 12:07:00,
2013-06-21 08:12:00,75.8,72.4,30.06,North,0,0.0,0.0,89,0.00,,,0.00,WUHU216HW,2013-06-21 12:12:00,
2013-06-21 08:17:00,75.8,72.4,30.06,North,0,0.0,0.0,89,0.00,,,0.00,WUHU216HW,2013-06-21 12:17:00,
2013-06-21 08:22:00,76.0,72.5,30.06,North,0,0.0,0.0,89,0.00,,,0.00,WUHU216HW,2013-06-21 12:22:00,
2013-06-21 08:27:00,76.0,72.5,30.06,North,0,0.0,0.0,89,0.00,,,0.00,WUHU216HW,2013-06-21 12:27:00,
2013-06-21 08:32:00,76.0,72.5,30.07,North,0,0.0,0.0,89,0.00,,,0.00,WUHU216HW,2013-06-21 12:32:00,
2013-06-21 08:37:00,76.0,72.2,30.07,North,0,0.0,0.0,88,0.00,,,0.00,WUHU216HW,2013-06-21 12:37:00,
2013-06-21 08:42:00,76.0,72.2,30.07,North,0,0.0,0.0,88,0.00,,,0.00,WUHU216HW,2013-06-21 12:42:00,
2013-06-21 08:47:00,76.0,72.5,30.07,North,0,0.0,0.0,89,0.00,,,0.00,WUHU216HW,2013-06-21 12:47:00,
2013-06-21 08:52:00,76.1,72.7,30.07,North,0,0.0,0.0,89,0.00,,,0.00,WUHU216HW,2013-06-21 12:52:00,
2013-06-21 08:57:00,76.3,72.9,30.07,North,0,0.0,0.0,89,0.00,,,0.00,WUHU216HW,2013-06-21 12:57:00,
2013-06-21 09:02:00,76.3,72.5,30.08,North,0,0.0,0.0,88,0.00,,,0.00,WUHU216HW,2013-06-21 13:02:00,
2013-06-21 09:07:00,76.5,72.7,30.08,North,0,0.0,0.0,88,0.00,,,0.00,WUHU216HW,2013-06-21 13:07:00,
2013-06-21 09:12:00,76.7,72.5,30.08,North,0,0.0,0.0,87,0.00,,,0.00,WUHU216HW,2013-06-21 13:12:00,
2013-06-21 09:17:00,76.7,72.5,30.08,North,0,0.0,0.0,87,0.00,,,0.00,WUHU216HW,2013-06-21 13:17:00,
2013-06-21 09:22:00,76.9,72.7,30.08,North,0,0.0,0.0,87,0.00,,,0.00,WUHU216HW,2013-06-21 13:22:00,
2013-06-21 09:27:00,77.0,72.9,30.08,North,0,0.0,0.0,87,0.00,,,0.00,WUHU216HW,2013-06-21 13:27:00,
2013-06-21 09:32:00,77.4,73.3,30.08,North,0,0.0,0.0,87,0.00,,,0.00,WUHU216HW,2013-06-21 13:32:00,
2013-06-21 09:37:00,77.6,73.1,30.08,North,0,0.0,0.0,86,0.00,,,0.00,WUHU216HW,2013-06-21 13:37:00,
2013-06-21 09:42:00,77.9,73.4,30.08,North,0,0.0,0.0,86,0.00,,,0.00,WUHU216HW,2013-06-21 13:42:00,
2013-06-21 09:47:00,78.3,73.4,30.09,North,0,0.0,0.0,85,0.00,,,0.00,WUHU216HW,2013-06-21 13:47:00,
2013-06-21 09:52:00,78.7,73.8,30.09,North,0,0.0,0.0,85,0.00,,,0.00,WUHU216HW,2013-06-21 13:52:00,
2013-06-21 09:57:00,79.0,73.8,30.09,North,0,0.0,0.0,84,0.00,,,0.00,WUHU216HW,2013-06-21 13:57:00,
2013-06-21 10:02:00,79.4,74.2,30.09,North,0,0.0,0.0,84,0.00,,,0.00,WUHU216HW,2013-06-21 14:02:00,
2013-06-21 10:07:00,79.9,74.7,30.09,North,0,0.0,0.0,84,0.00,,,0.00,WUHU216HW,2013-06-21 14:07:00,
2013-06-21 10:12:00,80.3,74.7,30.09,North,0,0.0,0.0,83,0.00,,,0.00,WUHU216HW,2013-06-21 14:12:00,
2013-06-21 10:17:00,80.5,74.5,30.08,North,0,0.0,0.0,82,0.00,,,0.00,WUHU216HW,2013-06-21 14:17:00,
2013-06-21 10:22:00,81.0,74.7,30.08,North,0,0.0,0.0,81,0.00,,,0.00,WUHU216HW,2013-06-21 14:22:00,
2013-06-21 10:27:00,81.4,74.7,30.08,North,0,0.0,0.0,80,0.00,,,0.00,WUHU216HW,2013-06-21 14:27:00,
2013-06-21 10:32:00,82.1,75.4,30.08,North,0,0.0,0.0,80,0.00,,,0.00,WUHU216HW,2013-06-21 14:32:00,
2013-06-21 10:38:00,82.4,75.8,30.09,North,0,0.0,0.0,80,0.00,,,0.00,WUHU216HW,2013-06-21 14:38:00,
2013-06-21 10:43:00,83.0,75.9,30.09,North,0,0.0,0.0,79,0.00,,,0.00,WUHU216HW,2013-06-21 14:43:00,
2013-06-21 10:48:00,83.5,76.3,30.09,North,0,0.0,0.0,79,0.00,,,0.00,WUHU216HW,2013-06-21 14:48:00,
2013-06-21 10:53:00,83.9,75.9,30.09,North,0,0.0,0.0,77,0.00,,,0.00,WUHU216HW,2013-06-21 14:53:00,
2013-06-21 10:58:00,84.2,75.8,30.09,North,0,0.0,0.0,76,0.00,,,0.00,WUHU216HW,2013-06-21 14:58:00,
2013-06-21 11:03:00,84.6,75.8,30.09,North,0,0.0,0.0,75,0.00,,,0.00,WUHU216HW,2013-06-21 15:03:00,
2013-06-21 11:08:00,85.0,76.1,30.09,North,0,0.0,0.0,75,0.00,,,0.00,WUHU216HW,2013-06-21 15:08:00,
2013-06-21 11:13:00,85.3,76.2,30.09,North,0,0.0,0.0,74,0.00,,,0.00,WUHU216HW,2013-06-21 15:13:00,
2013-06-21 11:18:00,85.7,76.1,30.09,North,0,0.0,0.0,73,0.00,,,0.00,WUHU216HW,2013-06-21 15:18:00,
2013-06-21 11:23:00,86.4,76.3,30.09,North,0,0.0,0.0,72,0.00,,,0.00,WUHU216HW,2013-06-21 15:23:00,
2013-06-21 11:28:00,86.8,76.7,30.09,North,0,0.0,0.0,72,0.00,,,0.00,WUHU216HW,2013-06-21 15:28:00,
2013-06-21 11:33:00,87.1,77.1,30.09,North,0,0.0,0.0,72,0.00,,,0.00,WUHU216HW,2013-06-21 15:33:00,
2013-06-21 11:38:00,87.5,77.0,30.09,North,0,0.0,0.0,71,0.00,,,0.00,WUHU216HW,2013-06-21 15:38:00,
2013-06-21 11:43:00,87.8,76.9,30.09,North,0,0.0,0.0,70,0.00,,,0.00,WUHU216HW,2013-06-21 15:43:00,
2013-06-21 11:48:00,88.0,76.6,30.09,North,0,0.0,0.0,69,0.00,,,0.00,WUHU216HW,2013-06-21 15:48:00,
2013-06-21 11:53:00,88.4,76.5,30.09,North,0,0.0,0.0,68,0.00,,,0.00,WUHU216HW,2013-06-21 15:53:00,
2013-06-21 11:58:00,88.7,77.3,30.09,North,0,0.0,0.0,69,0.00,,,0.00,WUHU216HW,2013-06-21 15:58:00,
2013-06-21 12:03:00,88.9,77.1,30.09,North,0,0.0,0.0,68,0.00,,,0.00,WUHU216HW,2013-06-21 16:03:00,
2013-06-21 12:08:00,88.9,76.6,30.08,North,0,0.0,0.0,67,0.00,,,0.00,WUHU216HW,2013-06-21 16:08:00,
2013-06-21 12:13:00,89.3,76.4,30.08,North,0,0.0,0.0,66,0.00,,,0.00,WUHU216HW,2013-06-21 16:13:00,
2013-06-21 12:18:00,89.3,76.0,30.08,North,0,0.0,0.0,65,0.00,,,0.00,WUHU216HW,2013-06-21 16:18:00,
2013-06-21 12:23:00,89.3,76.4,30.08,North,0,0.0,0.0,66,0.00,,,0.00,WUHU216HW,2013-06-21 16:23:00,
2013-06-21 12:28:00,89.5,75.7,30.08,North,0,0.0,0.0,64,0.00,,,0.00,WUHU216HW,2013-06-21 16:28:00,
2013-06-21 12:33:00,89.5,75.7,30.07,North,0,0.0,0.0,64,0.00,,,0.00,WUHU216HW,2013-06-21 16:33:00,
2013-06-21 12:38:00,89.5,75.7,30.07,North,0,0.0,0.0,64,0.00,,,0.00,WUHU216HW,2013-06-21 16:38:00,
2013-06-21 12:43:00,89.3,76.0,30.07,North,0,0.0,0.0,65,0.00,,,0.00,WUHU216HW,2013-06-21 16:43:00,
2013-06-21 12:48:00,89.1,76.2,30.06,North,0,0.0,0.0,66,0.00,,,0.00,WUHU216HW,2013-06-21 16:48:00,
2013-06-21 12:53:00,88.9,76.6,30.06,North,0,0.0,0.0,67,0.00,,,0.00,WUHU216HW,2013-06-21 16:53:00,
2013-06-21 12:58:00,88.7,76.4,30.06,North,0,0.0,0.0,67,0.00,,,0.00,WUHU216HW,2013-06-21 16:58:00,
2013-06-21 13:03:00,88.7,76.9,30.07,North,0,0.0,0.0,68,0.00,,,0.00,WUHU216HW,2013-06-21 17:03:00,
2013-06-21 13:09:00,89.1,77.2,30.07,North,0,0.0,0.0,68,0.00,,,0.00,WUHU216HW,2013-06-21 17:09:00,
2013-06-21 13:14:00,89.3,77.0,30.07,North,0,0.0,0.0,67,0.00,,,0.00,WUHU216HW,2013-06-21 17:14:00,
2013-06-21 13:19:00,89.5,76.6,30.07,North,0,0.0,0.0,66,0.00,,,0.00,WUHU216HW,2013-06-21 17:19:00,
2013-06-21 13:24:00,89.3,76.0,30.07,North,0,0.0,0.0,65,0.00,,,0.00,WUHU216HW,2013-06-21 17:24:00,
2013-06-21 13:29:00,88.9,76.2,30.07,North,0,0.0,0.0,66,0.00,,,0.00,WUHU216HW,2013-06-21 17:29:00,
2013-06-21 13:34:00,89.1,75.8,30.07,North,0,0.0,0.0,65,0.00,,,0.00,WUHU216HW,2013-06-21 17:34:00,
2013-06-21 13:39:00,89.1,76.2,30.07,North,0,0.0,0.0,66,0.00,,,0.00,WUHU216HW,2013-06-21 17:39:00,
2013-06-21 13:44:00,89.3,76.0,30.07,North,0,0.0,0.0,65,0.00,,,0.00,WUHU216HW,2013-06-21 17:44:00,
2013-06-21 13:46:00,89.5,76.1,30.06,North,0,0.0,0.0,65,0.00,,,0.00,WUHU216HW,2013-06-21 17:46:00,
2013-06-21 13:47:00,89.5,76.1,30.06,North,0,0.0,0.0,65,0.00,,,0.00,WUHU216HW,2013-06-21 17:47:00,
2013-06-21 13:52:00,89.5,75.7,30.06,North,0,0.0,0.0,64,0.00,,,0.00,WUHU216HW,2013-06-21 17:52:00,
2013-06-21 13:57:00,89.5,75.7,30.06,North,0,0.0,0.0,64,0.00,,,0.00,WUHU216HW,2013-06-21 17:57:00,
2013-06-21 14:02:00,89.6,76.3,30.06,North,0,0.0,0.0,65,0.00,,,0.00,WUHU216HW,2013-06-21 18:02:00,
2013-06-21 14:07:00,89.5,75.7,30.05,North,0,0.0,0.0,64,0.00,,,0.00,WUHU216HW,2013-06-21 18:07:00,
2013-06-21 14:13:00,89.3,75.1,30.05,North,0,0.0,0.0,63,0.00,,,0.00,WUHU216HW,2013-06-21 18:13:00,
2013-06-21 14:18:00,89.1,74.9,30.05,North,0,0.0,0.0,63,0.00,,,0.00,WUHU216HW,2013-06-21 18:18:00,
2013-06-21 14:23:00,89.3,75.1,30.05,North,0,0.0,0.0,63,0.00,,,0.00,WUHU216HW,2013-06-21 18:23:00,
2013-06-21 14:24:00,89.1,74.9,30.05,North,0,0.0,0.0,63,0.00,,,0.00,WUHU216HW,2013-06-21 18:24:00,
2013-06-21 14:29:00,89.3,75.1,30.04,North,0,0.0,0.0,63,0.00,,,0.00,WUHU216HW,2013-06-21 18:29:00,
2013-06-21 14:34:00,89.5,75.3,30.04,North,0,0.0,0.0,63,0.00,,,0.00,WUHU216HW,2013-06-21 18:34:00,
2013-06-21 14:39:00,89.5,75.7,30.03,North,0,0.0,0.0,64,0.00,,,0.00,WUHU216HW,2013-06-21 18:39:00,
2013-06-21 14:44:00,89.6,75.4,30.03,North,0,0.0,0.0,63,0.00,,,0.00,WUHU216HW,2013-06-21 18:44:00,
2013-06-21 14:45:00,89.6,75.4,30.03,North,0,0.0,0.0,63,0.00,,,0.00,WUHU216HW,2013-06-21 18:45:00,
2013-06-21 14:46:00,89.6,75.4,30.03,North,0,0.0,0.0,63,0.00,,,0.00,WUHU216HW,2013-06-21 18:46:00,
2013-06-21 14:51:00,89.8,76.1,30.03,North,0,0.0,0.0,64,0.00,,,0.00,WUHU216HW,2013-06-21 18:51:00,
2013-06-21 14:56:00,90.0,75.7,30.03,North,0,0.0,0.0,63,0.00,,,0.00,WUHU216HW,2013-06-21 18:56:00,
2013-06-21 15:01:00,89.8,74.6,30.03,North,0,0.0,0.0,61,0.00,,,0.00,WUHU216HW,2013-06-21 19:01:00,
2013-06-21 15:06:00,90.0,75.7,30.03,North,0,0.0,0.0,63,0.00,,,0.00,WUHU216HW,2013-06-21 19:06:00,
2013-06-21 15:11:00,90.0,74.8,30.03,North,0,0.0,0.0,61,0.00,,,0.00,WUHU216HW,2013-06-21 19:11:00,
2013-06-21 15:16:00,89.6,74.4,30.03,North,0,0.0,0.0,61,0.00,,,0.00,WUHU216HW,2013-06-21 19:16:00,
2013-06-21 15:20:00,89.6,74.4,30.03,North,0,0.0,0.0,61,0.00,,,0.00,WUHU216HW,2013-06-21 19:20:00,
2013-06-21 15:25:00,89.3,74.2,30.03,North,0,0.0,0.0,61,0.00,,,0.00,WUHU216HW,2013-06-21 19:25:00,
2013-06-21 15:30:00,88.9,74.3,30.03,North,0,0.0,0.0,62,0.00,,,0.00,WUHU216HW,2013-06-21 19:30:00,
2013-06-21 15:35:00,88.7,74.1,30.03,North,0,0.0,0.0,62,0.00,,,0.00,WUHU216HW,2013-06-21 19:35:00,
2013-06-21 15:40:00,88.6,74.3,30.02,North,0,0.0,0.0,63,0.00,,,0.00,WUHU216HW,2013-06-21 19:40:00,
2013-06-21 15:42:00,88.4,74.3,30.03,North,0,0.0,0.0,63,0.00,,,0.00,WUHU216HW,2013-06-21 19:42:00,
2013-06-21 15:47:00,87.8,73.7,30.03,North,0,0.0,0.0,63,0.00,,,0.00,WUHU216HW,2013-06-21 19:47:00,
2013-06-21 15:52:00,87.7,74.0,30.04,North,0,0.0,0.0,64,0.00,,,0.00,WUHU216HW,2013-06-21 19:52:00,
2013-06-21 15:57:00,87.1,74.3,30.04,North,0,0.0,0.0,66,0.01,,,0.00,WUHU216HW,2013-06-21 19:57:00,
2013-06-21 16:02:00,85.5,74.3,30.05,North,0,0.0,0.0,69,0.13,,,0.13,WUHU216HW,2013-06-21 20:02:00,
2013-06-21 16:04:00,84.4,73.6,30.06,North,0,0.0,0.0,70,0.19,,,0.13,WUHU216HW,2013-06-21 20:04:00,
2013-06-21 23:41:00,75.6,71.5,30.08,North,0,0.0,0.0,87,0.00,,,1.80,WUHU216HW,2013-06-22 03:41:00,
2013-06-21 23:46:00,75.6,71.5,30.08,North,0,0.0,0.0,87,0.00,,,1.80,WUHU216HW,2013-06-22 03:46:00,
2013-06-21 23:51:00,75.6,71.5,30.08,North,0,0.0,0.0,87,0.00,,,1.80,WUHU216HW,2013-06-22 03:51:00,
2013-06-21 23:56:00,75.6,71.5,30.08,North,0,0.0,0.0,87,0.00,,,1.80,WUHU216HW,2013-06-22 03:56:00,